Regional Weather Roundup
Issued by NWS

Home | Current Version | Previous Version | Graphics & Text | Print | Product List | Glossary On
Versions: 1 2 3 4 5 6 7 8 9 10 11 12 13 14 15 16 17 18 19 20 21 22 23 24 25 26 27 28 29 30 31 32 33 34 35 36 37 38 39 40 41 42 43 44 45 46 47 48 49 50
000
ASUS45 KBOU 311110
RWRCO

WEATHER ROUNDUP FOR COLORADO
NATIONAL WEATHER SERVICE PUEBLO CO
500 AM MDT FRI JUL 31 2015

NOTE: "FAIR" INDICATES FEW OR NO CLOUDS BELOW 12000 FEET WITH NO
SIGNIFICANT WEATHER AND/OR OBSTRUCTIONS TO VISIBILITY.

COZ001>005-013-030-031-311200-
...NORTHWEST COLORADO...

CITY           SKY/WX    TMP DP  RH WIND       PRES   REMARKS
CRAIG          CLEAR     41  32  70 CALM      30.37S
HAYDEN         CLEAR     52  30  43 SE12      30.38S
MEEKER         CLEAR     49  32  52 CALM      30.39R
MOUNT WERNER   NOT AVBL
STEAMBOAT SPGS NOT AVBL
WALDEN         FAIR      41  34  75 SE8       30.52S
$$

COZ006>008-011-311200-
...WEST CENTRAL VALLEYS...

CITY           SKY/WX    TMP DP  RH WIND       PRES   REMARKS
GRAND JUNCTION CLEAR     62  30  29 CALM      30.23S
MONTROSE       PTCLDY    60  37  42 S5        30.33S
EAGLE          CLEAR     52  32  46 CALM      30.45S
RIFLE          CLEAR     57  30  35 VRB3      30.32R
DELTA          NOT AVBL
NUCLA          FAIR      61  41  48 E6        30.40S
$$

COZ017>023-064>068-311200-
...SOUTHWEST COLORADO...

CITY           SKY/WX    TMP DP  RH WIND       PRES   REMARKS
DURANGO        MOCLDY    59  57  93 NE3       30.41F
CORTEZ         CLEAR     62  58  86 CALM      30.35F
PAGOSA SPRINGS FAIR      57  56  95 CALM      30.49S
TELLURIDE      MOCLDY    59  41  50 CALM      30.58F
WOLF CREEK PAS NOT AVBL
$$

COZ009-010-012-014-032>034-037-058>063-311200-
...CENTRAL COLORADO...

CITY           SKY/WX    TMP DP  RH WIND       PRES   REMARKS
ASPEN          CLEAR     56  42  59 SW8       30.47S
BUENA VISTA    FAIR      54  49  83 CALM      30.54R
COPPER MTN     NOT AVBL
BERTHOUD PASS  FAIR      43  34  70 E5        30.85S
COTTONWOOD PAS MOCLDY    55  46  71 W5        30.66S
GUNNISON       MOCLDY    55  43  62 N6        30.51S
KREMMLING      CLEAR     45  32  61 CALM      30.51R
LEADVILLE      CLEAR     45  42  89 CALM      30.65S
MONARCH PASS   CLOUDY    46  43  87 NE6       30.89F
SALIDA         MOCLDY    57  50  78 SW5       30.57S
NIWOT RIDGE    NOT AVBL
SUNLIGHT       PTCLDY    54  37  54 CALM      30.71F
WILKERSON PASS PTCLDY    50  41  71 W3        30.78S
$$

COZ069>075-311200-
...SAN LUIS VALLEY/SANGRE DE CRISTO MOUNTAINS...

CITY           SKY/WX    TMP DP  RH WIND       PRES   REMARKS
ALAMOSA        CLOUDY    55  51  86 CALM      30.48R
LA VETA PASS   MOCLDY    48  43  81 MISG      30.65S
SAGUACHE       CLOUDY    54  50  87 NW6       30.51S
$$

COZ035-036-038>040-311200-
...NORTHERN COLORADO FRONT RANGE...

CITY           SKY/WX    TMP DP  RH WIND       PRES   REMARKS
DENVER INTL AP PTCLDY    63  55  75 W6        30.33R
DMNS CITY PARK NOT AVBL
AURORA         PTCLDY    62  54  76 S6        30.35S
FRONT RANGE AP NOT AVBL
ERIE MUNI ARPT NOT AVBL
BOULDER MUN AP NOT AVBL
CENTENNIAL     PTCLDY    62  51  67 W5        30.36S
BROOMFIELD     PTCLDY    63  55  77 CALM      30.35S
LOVELAND       CLEAR     59  54  82 CALM      30.33R
LONGMONT       NOT AVBL
$$

COZ041-046-047-076>085-087-088-311200-
...PIKES PEAK/PALMER DIVIDE AND SOUTHERN FOOTHILLS...

CITY           SKY/WX    TMP DP  RH WIND       PRES   REMARKS
COLO. SPRINGS  MOCLDY    59  55  87 CALM      30.40R
A. F. ACADEMY  CLEAR     54  52  93 N8        30.41R
ELLICOTT       FOG      N/A N/A N/A CALM      30.39R VSB 1
FALCON         NOT AVBL
FORT CARSON    CLEAR     56  53  87 N5        30.37R
LIMON          CLEAR     50  50 100 NW3       30.35R
MONUMENT HILL  CLEAR     54  52  94 SW7       30.44F
TRINIDAD       PTCLDY    61  54  77 W10       30.36S
$$

COZ042>045-048>051-090-091-311200-
...NORTHEAST COLORADO...

CITY           SKY/WX    TMP DP  RH WIND       PRES   REMARKS
GREELEY ARPT   CLEAR     57  54  88 CALM      30.30S
AKRON          CLEAR     58  55  90 SE6       30.32R
BURLINGTON     CLEAR     61  57  87 CALM      30.31R
WRAY           FAIR     N/A N/A N/A CALM      30.28R
STERLING       NOT AVBL
HOLYOKE        NOT AVBL
FORT MORGAN    FAIR      58  55  89 E6        30.29F
$$

COZ086-089-092>099-311200-
...SOUTHEAST COLORADO...

CITY           SKY/WX    TMP DP  RH WIND       PRES   REMARKS
PUEBLO         PTCLDY    66  58  75 NW3       30.31R
LA JUNTA       PTCLDY    66  63  90 S6        30.26F
LAMAR          PTCLDY    66  65  96 CALM      30.23S
SPRINGFIELD      N/A     64  64 100 S7        30.30R
$$



USA.gov is the U.S. government's official web portal to all federal, state and local government web resources and services.